When you browse on this site, cookies collect data to enhance your experience and personalize the content and advertising you see.
Visit our Privacy Policy to learn more. By continuing to use the site, you agree to this use of cookies and data.
  • In Sweden
  • List of Countries
  • For 7 days
  • Water Temperature
  • Weather Map
  • Weather Widgets
  • user-avatar
    Login

    Hourly Weather Mumbai

    Today, 24 February, Monday

    Time Temperature Precipitation Wind Pressure Humidity
    00:00 +27°C° 0 mm 2 mps 759 mmHg 45%
    01:00 +26°C° 0 mm 2 mps 758 mmHg 44%
    02:00 +26°C° 0 mm 2 mps 758 mmHg 43%
    03:00 +26°C° 0 mm 2 mps 757 mmHg 41%
    04:00 +25°C° 0 mm 2 mps 757 mmHg 40%
    05:00 +25°C° 0 mm 3 mps 757 mmHg 38%
    06:00 +26°C° 0 mm 3 mps 758 mmHg 36%
    07:00 +26°C° 0 mm 2 mps 758 mmHg 33%
    08:00 +27°C° 0 mm 2 mps 759 mmHg 31%
    09:00 +29°C° 0 mm 2 mps 759 mmHg 28%
    10:00 +31°C° 0 mm 2 mps 759 mmHg 25%
    11:00 +34°C° 0 mm 3 mps 759 mmHg 22%
    12:00 +34°C° 0 mm 4 mps 758 mmHg 24%
    13:00 +34°C° 0 mm 5 mps 757 mmHg 27%
    14:00 +34°C° 0 mm 6 mps 756 mmHg 29%
    15:00 +34°C° 0 mm 6 mps 756 mmHg 32%
    16:00 +33°C° 0 mm 6 mps 756 mmHg 35%
    17:00 +32°C° 0 mm 6 mps 756 mmHg 38%
    18:00 +30°C° 0 mm 5 mps 756 mmHg 42%
    19:00 +29°C° 0 mm 4 mps 757 mmHg 47%
    20:00 +27°C° 0 mm 3 mps 758 mmHg 51%
    21:00 +27°C° 0 mm 3 mps 758 mmHg 51%
    22:00 +26°C° 0 mm 2 mps 758 mmHg 51%
    23:00 +25°C° 0 mm 2 mps 758 mmHg 51%

    Tomorrow, 25 February, Tuesday

    Time Temperature Precipitation Wind Pressure Humidity
    00:00 +25°C° 0 mm 2 mps 758 mmHg 50%
    01:00 +25°C° 0 mm 2 mps 757 mmHg 48%
    02:00 +25°C° 0 mm 2 mps 757 mmHg 46%
    03:00 +25°C° 0 mm 3 mps 757 mmHg 44%
    04:00 +23°C° 0 mm 4 mps 757 mmHg 43%
    05:00 +23°C° 0 mm 5 mps 756 mmHg 41%
    06:00 +23°C° 0 mm 4 mps 757 mmHg 38%
    07:00 +25°C° 0 mm 4 mps 758 mmHg 35%
    08:00 +25°C° 0 mm 3 mps 759 mmHg 32%
    09:00 +28°C° 0 mm 3 mps 759 mmHg 29%
    10:00 +31°C° 0 mm 2 mps 759 mmHg 26%
    11:00 +35°C° 0 mm 2 mps 759 mmHg 23%
    12:00 +35°C° 0 mm 3 mps 758 mmHg 23%
    13:00 +35°C° 0 mm 5 mps 757 mmHg 23%
    14:00 +35°C° 0 mm 6 mps 756 mmHg 23%
    15:00 +34°C° 0 mm 6 mps 756 mmHg 27%
    16:00 +34°C° 0 mm 7 mps 755 mmHg 30%
    17:00 +33°C° 0 mm 7 mps 755 mmHg 34%
    18:00 +32°C° 0 mm 7 mps 755 mmHg 37%
    19:00 +29°C° 0 mm 6 mps 756 mmHg 41%
    20:00 +28°C° 0 mm 6 mps 757 mmHg 44%
    21:00 +27°C° 0 mm 5 mps 757 mmHg 46%
    22:00 +26°C° 0 mm 4 mps 757 mmHg 47%
    23:00 +25°C° 0 mm 3 mps 757 mmHg 48%

    Day after tomorrow, 26 February, Wednesday

    Time Temperature Precipitation Wind Pressure Humidity
    00:00 +25°C° 0 mm 3 mps 757 mmHg 46%
    01:00 +24°C° 0 mm 3 mps 757 mmHg 43%
    02:00 +24°C° 0 mm 3 mps 757 mmHg 41%
    03:00 +22°C° 0 mm 3 mps 756 mmHg 39%
    04:00 +22°C° 0 mm 3 mps 756 mmHg 37%
    05:00 +22°C° 0 mm 3 mps 756 mmHg 35%
    06:00 +24°C° 0 mm 3 mps 757 mmHg 32%
    07:00 +25°C° 0 mm 3 mps 758 mmHg 29%
    08:00 +26°C° 0 mm 3 mps 759 mmHg 25%
    09:00 +29°C° 0 mm 2 mps 759 mmHg 24%
    10:00 +32°C° 0 mm 2 mps 759 mmHg 24%
    11:00 +34°C° 0 mm 1 mps 759 mmHg 23%
    12:00 +36°C° 0 mm 3 mps 758 mmHg 22%
    13:00 +36°C° 0 mm 4 mps 757 mmHg 22%
    14:00 +37°C° 0 mm 5 mps 756 mmHg 21%
    15:00 +35°C° 0 mm 5 mps 756 mmHg 26%
    16:00 +34°C° 0 mm 5 mps 756 mmHg 31%
    17:00 +33°C° 0 mm 5 mps 756 mmHg 36%
    18:00 +30°C° 0 mm 5 mps 756 mmHg 41%
    19:00 +29°C° 0 mm 4 mps 757 mmHg 47%
    20:00 +27°C° 0 mm 3 mps 758 mmHg 53%
    21:00 +27°C° 0 mm 3 mps 758 mmHg 53%
    22:00 +26°C° 0 mm 3 mps 758 mmHg 54%
    23:00 +26°C° 0 mm 3 mps 758 mmHg 54%

    27 February, Thursday

    Time Temperature Precipitation Wind Pressure Humidity
    00:00 +25°C° 0 mm 3 mps 758 mmHg 51%
    01:00 +25°C° 0 mm 2 mps 757 mmHg 47%
    02:00 +25°C° 0 mm 2 mps 757 mmHg 44%
    03:00 +24°C° 0 mm 2 mps 757 mmHg 42%
    04:00 +24°C° 0 mm 2 mps 757 mmHg 40%
    05:00 +24°C° 0 mm 2 mps 756 mmHg 38%
    06:00 +25°C° 0 mm 2 mps 757 mmHg 34%
    07:00 +26°C° 0 mm 2 mps 758 mmHg 30%
    08:00 +27°C° 0 mm 2 mps 759 mmHg 26%
    09:00 +30°C° 0 mm 2 mps 759 mmHg 24%
    10:00 +34°C° 0 mm 2 mps 759 mmHg 23%
    11:00 +37°C° 0 mm 2 mps 759 mmHg 22%
    12:00 +38°C° 0 mm 2 mps 758 mmHg 21%
    13:00 +38°C° 0 mm 3 mps 757 mmHg 20%
    14:00 +38°C° 0 mm 4 mps 756 mmHg 19%
    15:00 +37°C° 0 mm 5 mps 756 mmHg 23%
    16:00 +35°C° 0 mm 5 mps 755 mmHg 28%
    17:00 +34°C° 0 mm 5 mps 755 mmHg 32%
    18:00 +32°C° 0 mm 5 mps 756 mmHg 38%
    19:00 +30°C° 0 mm 4 mps 756 mmHg 44%
    20:00 +28°C° 0 mm 3 mps 757 mmHg 49%
    21:00 +27°C° 0 mm 3 mps 757 mmHg 49%
    22:00 +27°C° 0 mm 2 mps 757 mmHg 49%
    23:00 +26°C° 0 mm 2 mps 757 mmHg 49%

    28 February, Friday

    Time Temperature Precipitation Wind Pressure Humidity
    00:00 +26°C° 0 mm 1 mps 756 mmHg 47%
    01:00 +25°C° 0 mm 1 mps 756 mmHg 45%
    02:00 +25°C° 0 mm 1 mps 756 mmHg 43%
    03:00 +25°C° 0 mm 1 mps 755 mmHg 42%
    04:00 +25°C° 0 mm 1 mps 755 mmHg 41%
    05:00 +25°C° 0 mm 1 mps 755 mmHg 40%
    06:00 +26°C° 0 mm 1 mps 756 mmHg 37%
    07:00 +27°C° 0 mm 1 mps 756 mmHg 34%
    08:00 +28°C° 0 mm 1 mps 757 mmHg 32%
    09:00 +30°C° 0 mm 2 mps 757 mmHg 28%
    10:00 +32°C° 0 mm 2 mps 757 mmHg 25%
    11:00 +35°C° 0 mm 2 mps 757 mmHg 21%
    12:00 +34°C° 0 mm 3 mps 756 mmHg 26%
    13:00 +34°C° 0 mm 4 mps 755 mmHg 32%
    14:00 +33°C° 0 mm 5 mps 755 mmHg 37%
    15:00 +32°C° 0 mm 5 mps 755 mmHg 41%
    16:00 +32°C° 0 mm 4 mps 755 mmHg 44%
    17:00 +30°C° 0 mm 3 mps 755 mmHg 47%
    18:00 +29°C° 0 mm 3 mps 755 mmHg 53%
    19:00 +28°C° 0 mm 2 mps 756 mmHg 59%
    20:00 +27°C° 0 mm 1 mps 756 mmHg 65%
    21:00 +26°C° 0 mm 1 mps 756 mmHg 65%
    22:00 +26°C° 0 mm 2 mps 757 mmHg 66%
    23:00 +25°C° 0 mm 2 mps 757 mmHg 66%

    29 February, Saturday

    Time Temperature Precipitation Wind Pressure Humidity
    00:00 +25°C° 0 mm 1 mps 756 mmHg 67%
    01:00 +25°C° 0 mm 1 mps 756 mmHg 67%
    02:00 +24°C° 0 mm 1 mps 755 mmHg 68%
    03:00 +24°C° 0 mm 1 mps 755 mmHg 68%
    04:00 +24°C° 0 mm 1 mps 755 mmHg 67%
    05:00 +24°C° 0 mm 1 mps 755 mmHg 67%
    06:00 +24°C° 0 mm 2 mps 756 mmHg 64%
    07:00 +25°C° 0 mm 2 mps 756 mmHg 61%
    08:00 +26°C° 0 mm 2 mps 757 mmHg 58%
    09:00 +27°C° 0 mm 2 mps 757 mmHg 55%
    10:00 +28°C° 0 mm 1 mps 757 mmHg 53%
    11:00 +29°C° 0 mm 1 mps 757 mmHg 50%
    12:00 +29°C° 0 mm 2 mps 757 mmHg 51%
    13:00 +29°C° 0 mm 2 mps 756 mmHg 51%
    14:00 +30°C° 0 mm 3 mps 755 mmHg 52%
    15:00 +29°C° 0 mm 3 mps 755 mmHg 54%
    16:00 +29°C° 0 mm 3 mps 755 mmHg 57%
    17:00 +29°C° 0 mm 3 mps 755 mmHg 59%
    18:00 +28°C° 0 mm 3 mps 756 mmHg 65%
    19:00 +27°C° 0 mm 2 mps 756 mmHg 70%
    20:00 +26°C° 0 mm 2 mps 757 mmHg 76%
    21:00 +25°C° 0 mm 1 mps 757 mmHg 76%
    22:00 +25°C° 0 mm 1 mps 757 mmHg 76%
    23:00 +25°C° 0 mm 1 mps 757 mmHg 76%
    Show more